Regional Weather Roundup
Issued by NWS

Home | Current Version | Previous Version | Graphics & Text | Print | Product List | Glossary On
Versions: 1 2 3 4 5 6 7 8 9 10 11 12 13 14 15 16 17 18 19 20 21 22 23 24 25 26 27 28 29 30 31 32 33 34 35 36 37 38 39 40 41 42 43 44 45 46 47 48 49 50
000
ASUS43 KOAX 161502
RWRNE

WEATHER ROUNDUP FOR NEBRASKA
NATIONAL WEATHER SERVICE OMAHA NE
1000 AM CDT TUE SEP 16 2014

NOTES: SATELLITE DATA IS BEING USED TO AUGMENT CLOUD COVER ABOVE
       12000 FEET.
       "FAIR" INDICATES FEW OR NO CLOUDS BELOW 12,000 FEET WITH NO
       SIGNIFICANT WEATHER AND/OR OBSTRUCTIONS TO VISIBILITY.

  * THESE STATIONS DO NOT REPORT WEATHER SUCH AS RAIN...SNOW OR FOG.

NEZ001>004-019>022-054>056-161600-
NEBRASKA PANHANDLE

CITY           SKY/WX    TMP DP  RH WIND       PRES   REMARKS
SCOTTSBLUFF    SUNNY     56  51  84 W7        30.10S
ALLIANCE       SUNNY     59  52  77 W8        30.07F
CHADRON        SUNNY     59  50  72 W9        30.06S
SIDNEY         SUNNY     59  52  77 SW12      30.11S
$$

NEZ057>060-069>072-079>082-161600-
SOUTHWEST NEBRASKA

CITY           SKY/WX    TMP DP  RH WIND       PRES   REMARKS
NORTH PLATTE   MOSUNNY   57  50  77 S13       30.10F
IMPERIAL       MOSUNNY   61  53  75 S16G25    30.11F
MCCOOK         CLOUDY    58  51  78 S12G23    30.15F
$$

NEZ005>010-023>029-035>040-094-161600-
NORTH CENTRAL NEBRASKA

CITY           SKY/WX    TMP DP  RH WIND       PRES   REMARKS
VALENTINE      SUNNY     59  48  67 S12       30.06F
BROKEN BOW     SUNNY     56  49  77 S16G24    30.14F
ORD            SUNNY     54  48  80 S12       30.16S
$$

NEZ041-046>049-061>064-073>077-083>087-161600-
SOUTH CENTRAL NEBRASKA

CITY           SKY/WX    TMP DP  RH WIND       PRES   REMARKS
GRAND ISLAND     N/A     56  47  71 S14       30.20S
HASTINGS       SUNNY     54  45  71 S13       30.19F
KEARNEY *      MOSUNNY   54  48  82 SE15      30.20R
$$

NEZ011>018-030>034-042>045-161600-
NORTHEAST NEBRASKA

CITY           SKY/WX    TMP DP  RH WIND       PRES   REMARKS
NORFOLK        SUNNY     55  47  74 S12       30.19S
COLUMBUS *     SUNNY     55  45  67 S9        30.22S
TEKAMAH        SUNNY     54  49  83 SE5       30.22F
$$

NEZ050>053-065>068-078-088>093-161600-
SOUTHEAST NEBRASKA

CITY           SKY/WX    TMP DP  RH WIND       PRES   REMARKS
LINCOLN        SUNNY     55  48  77 S7        30.24S
OMAHA EPPLEY   SUNNY     54  48  80 S8        30.24F
FALLS CITY     SUNNY     55  49  80 SE6       30.24S
$$

NEZ044-045-051>053-067-161600-
OMAHA AREA

CITY           SKY/WX    TMP DP  RH WIND       PRES   REMARKS
OMAHA EPPLEY   SUNNY     54  48  80 S8        30.24F
OFFUTT AFB     SUNNY     52  52 100 SE2       30.23F
$$



USA.gov is the U.S. government's official web portal to all federal, state and local government web resources and services.